Weather History for Deming, NM

Change the Weather History Date:

Friday, September 13, 2013

  Actual Average Record
Temperature  
Mean Temperature 67 °F 74 °F  
Max Temperature 71 °F 89 °F 100 °F (1960)
Min Temperature 64 °F 59 °F 46 °F (1950)
Cooling Degree Days 2    
Growing Degree Days 17 (Base 50)    
Moisture  
Dew Point 62 °F    
Average Humidity 90    
Maximum Humidity 96    
Minimum Humidity 78    
Precipitation  
Precipitation 0.41 in 0.05 in 1.95 in (1958)
Month to date precipitation 0.58  
Year to date precipitation 8.17  
Sea Level Pressure  
Sea Level Pressure 29.92 in    
Wind  
Wind Speed 11 mph (ENE)    
Max Wind Speed 20 mph    
Max Gust Speed 25 mph    
Visibility 9 miles    
Events Rain    
T = Trace of Precipitation, MM = Missing Value Source: NWS Daily Summary

Daily Weather History Graph

Daily Weather History Graph

Search for Another Location

Airport:

Trip Planner

Search our weather history database for the weather conditions in past years. The results will help you decide how hot, cold, wet, or windy it might be!

Date:

Astronomy

Sep. 13, 2013 Rise Set
Actual Time 6:53 AM MDT 7:19 PM MDT
Civil Twilight 6:29 AM MDT 7:43 PM MDT
Nautical Twilight 6:00 AM MDT 8:12 PM MDT
Astronomical Twilight 5:30 AM MDT 8:41 PM MDT
Moon 2:57 PM MDT (9/13) 12:41 AM MDT (9/13)
Length of Visible Light 13h 14m
Length of Day
12h 25m
Waxing Gibbous, 62% of the Moon is Illuminated
Sep 13
Waxing Gibbous
Sep 19
Full
Sep 26
Last Quarter
Oct 4
New
Oct 11
First Quarter

Hourly Weather History & Observations

Time (MDT) Temp. Dew Point Humidity Pressure Visibility Wind Dir Wind Speed Gust Speed Precip Events Conditions
12:53 AM 66.0 °F 63.0 °F 90% 29.89 in 10.0 mi ENE 8.1 mph - 0.00 in   Overcast
1:30 AM 64.4 °F 62.6 °F 94% 30.07 in 2.5 mi ENE 9.2 mph - 0.11 in Rain Heavy Rain
1:35 AM 64.4 °F 62.6 °F 94% 30.07 in 3.0 mi ENE 10.4 mph - 0.11 in Rain Light Rain
1:53 AM 64.9 °F 63.0 °F 93% 29.89 in 10.0 mi ENE 10.4 mph - 0.12 in Rain Light Rain
2:53 AM 64.9 °F 63.0 °F 93% 29.88 in 10.0 mi ENE 10.4 mph - 0.02 in   Overcast
3:33 AM 64.4 °F 62.6 °F 94% 30.06 in 2.5 mi East 5.8 mph - 0.10 in Rain Heavy Rain
3:40 AM 64.4 °F 62.6 °F 94% 30.05 in 1.5 mi ENE 11.5 mph - 0.19 in Rain Heavy Rain
3:49 AM 64.4 °F 62.6 °F 94% 30.06 in 3.0 mi ENE 8.1 mph - 0.22 in Rain Rain
3:53 AM 64.0 °F 63.0 °F 96% 29.87 in 5.0 mi ENE 9.2 mph - 0.22 in Rain Light Rain
4:53 AM 64.0 °F 63.0 °F 96% 29.87 in 9.0 mi East 5.8 mph - 0.00 in   Overcast
5:53 AM 64.9 °F 63.0 °F 93% 29.87 in 10.0 mi ENE 5.8 mph - N/A   Overcast
6:05 AM 64.4 °F 62.6 °F 94% 30.04 in 10.0 mi ENE 9.2 mph - N/A   Overcast
6:16 AM 64.4 °F 62.6 °F 94% 30.04 in 10.0 mi ENE 9.2 mph - N/A   Overcast
6:53 AM 64.9 °F 63.0 °F 93% 29.88 in 10.0 mi ENE 9.2 mph - N/A   Overcast
7:37 AM 64.4 °F 62.6 °F 94% 30.06 in 10.0 mi ENE 9.2 mph - N/A   Overcast
7:53 AM 64.9 °F 63.0 °F 93% 29.89 in 10.0 mi ENE 10.4 mph - N/A   Overcast
8:13 AM 64.4 °F 62.6 °F 94% 30.06 in 10.0 mi East 11.5 mph - N/A   Overcast
8:53 AM 66.0 °F 63.0 °F 90% 29.89 in 10.0 mi East 12.7 mph - N/A   Overcast
9:53 AM 66.0 °F 63.0 °F 90% 29.90 in 10.0 mi ENE 15.0 mph - 0.00 in   Overcast
9:59 AM 66.2 °F 62.6 °F 88% 30.07 in 9.0 mi East 13.8 mph - 0.00 in Rain Light Rain
10:53 AM 64.9 °F 63.0 °F 93% 29.91 in 4.0 mi ENE 13.8 mph - 0.05 in Rain Light Rain
11:28 AM 64.4 °F 62.6 °F 94% 30.08 in 10.0 mi NE 11.5 mph - 0.00 in   Overcast
11:53 AM 64.0 °F 62.1 °F 93% 29.90 in 10.0 mi NE 18.4 mph 21.9 mph 0.00 in   Overcast
12:53 PM 64.0 °F 61.0 °F 90% 29.89 in 10.0 mi NE 19.6 mph 25.3 mph N/A   Overcast
1:53 PM 64.9 °F 61.0 °F 87% 29.88 in 10.0 mi NE 17.3 mph - N/A   Overcast
2:53 PM 64.9 °F 62.1 °F 90% 29.86 in 10.0 mi NE 13.8 mph - N/A   Overcast
3:33 PM 66.2 °F 62.6 °F 88% 30.01 in 10.0 mi NE 16.1 mph - N/A   Overcast
3:53 PM 69.1 °F 63.0 °F 81% 29.82 in 10.0 mi NE 19.6 mph 24.2 mph N/A   Mostly Cloudy
4:53 PM 70.0 °F 63.0 °F 78% 29.81 in 10.0 mi NE 16.1 mph - N/A   Overcast
5:53 PM 68.0 °F 62.1 °F 81% 29.81 in 10.0 mi NE 11.5 mph - N/A   Overcast
6:53 PM 66.9 °F 62.1 °F 84% 29.81 in 10.0 mi ENE 11.5 mph - N/A   Mostly Cloudy
7:53 PM 66.9 °F 62.1 °F 84% 29.81 in 10.0 mi NE 11.5 mph 21.9 mph N/A   Mostly Cloudy
8:53 PM 66.9 °F 61.0 °F 81% 29.81 in 10.0 mi NE 13.8 mph - N/A   Overcast
9:53 PM 66.9 °F 61.0 °F 81% 29.82 in 10.0 mi ENE 11.5 mph 23.0 mph N/A   Clear
10:53 PM 66.0 °F 61.0 °F 84% 29.83 in 10.0 mi NE 15.0 mph 18.4 mph N/A   Scattered Clouds
11:53 PM 66.9 °F 60.1 °F 79% 29.83 in 10.0 mi NE 9.2 mph - N/A   Mostly Cloudy